Date,TemperatureHighF,TemperatureAvgF,TemperatureLowF,DewpointHighF,DewpointAvgF,DewpointLowF,HumidityHigh,HumidityAvg,HumidityLow,PressureMaxIn,PressureMinIn,WindSpeedMaxMPH,WindSpeedAvgMPH,GustSpeedMaxMPH,PrecipitationSumIn
2013-1-1,29,28,26,22,21,19,80,74,65,0.00,40.00,7,4,13,0.00
2013-1-2,34,28,22,23,21,18,85,73,57,0.00,40.00,6,4,10,0.00
2013-1-3,32,24,19,22,19,14,85,79,63,0.00,40.00,9,5,14,0.00
2013-1-4,32,28,21,28,23,17,85,80,74,0.00,40.00,6,4,12,0.00
2013-1-5,37,32,28,29,28,26,90,84,72,0.00,40.00,5,3,9,0.00
2013-1-6,35,33,32,32,30,28,94,90,85,0.00,40.00,3,2,6,0.00
2013-1-7,34,33,32,33,32,30,97,95,90,0.00,40.00,3,2,6,0.00
2013-1-8,36,34,33,35,33,32,97,96,94,0.00,40.00,3,2,6,0.02
2013-1-9,38,36,34,37,35,33,97,96,94,0.00,40.00,4,3,9,0.02
2013-1-10,35,33,28,34,28,24,96,83,67,0.00,40.00,7,4,19,0.01
2013-1-11,35,27,23,25,21,17,89,78,48,0.00,40.00,6,4,12,0.00
2013-1-12,25,23,22,21,18,16,86,81,76,0.00,40.00,8,5,15,0.00
2013-1-13,27,23,21,18,16,15,82,75,61,0.00,40.00,6,3,11,0.00
2013-1-14,26,23,21,23,20,17,90,85,80,0.00,40.00,5,3,7,0.00
2013-1-15,32,28,25,27,24,23,90,86,76,0.00,40.00,4,3,8,0.00
2013-1-16,35,28,23,28,24,19,91,84,72,0.00,40.00,8,5,13,0.00
2013-1-17,35,28,23,27,24,18,91,85,72,0.00,40.00,9,6,14,0.00
2013-1-18,36,29,25,28,25,21,91,85,72,0.00,40.00,10,4,13,0.00
2013-1-19,37,29,25,28,25,21,92,83,68,0.00,40.00,8,4,13,0.00
2013-1-20,38,29,25,29,26,22,92,85,71,0.00,40.00,5,4,10,0.00
2013-1-21,37,29,25,29,25,21,92,84,69,0.00,40.00,6,4,12,0.00
2013-1-22,38,29,22,27,24,19,89,81,63,0.00,40.00,9,5,13,0.00
2013-1-23,38,31,26,34,28,23,96,86,69,0.00,40.00,6,4,10,0.01
2013-1-24,43,37,33,39,35,32,97,92,83,0.00,40.00,3,2,7,0.01
2013-1-25,39,37,35,38,36,34,97,96,94,0.00,40.00,3,2,5,0.02
2013-1-26,40,37,35,38,36,34,97,95,91,0.00,40.00,4,2,7,0.01
2013-1-27,38,36,34,36,34,33,96,93,86,0.00,40.00,4,2,5,0.01
2013-1-28,35,34,33,33,32,31,97,95,93,0.00,40.00,4,2,6,0.01
2013-1-29,40,35,33,36,33,32,97,93,73,0.00,40.00,5,2,15,0.01
2013-1-30,38,34,33,36,33,32,98,96,91,0.00,40.00,2,1,4,0.02
2013-1-31,40,37,36,38,36,35,98,97,94,0.00,40.00,2,2,4,0.01
2013-2-1,44,38,35,41,36,33,98,96,88,0.00,40.00,4,2,6,0.00
2013-2-2,46,37,33,37,34,31,95,87,72,0.00,40.00,8,4,12,0.00
2013-2-3,42,36,32,37,33,30,93,88,76,0.00,40.00,5,3,7,0.00
2013-2-4,45,38,34,38,34,32,93,86,69,0.00,40.00,4,2,6,0.00
2013-2-5,45,38,35,39,35,32,95,89,77,0.00,40.00,5,2,11,0.00
2013-2-6,47,38,34,38,35,31,95,88,70,0.00,40.00,4,3,8,0.00
2013-2-7,43,37,33,37,34,31,95,87,72,0.00,40.00,5,3,8,0.00
2013-2-8,39,37,34,35,33,31,95,87,76,0.00,40.00,7,3,13,0.00
2013-2-9,38,35,32,32,30,27,92,82,65,0.00,40.00,11,4,17,0.00
2013-2-10,40,34,31,30,29,28,91,80,62,0.00,40.00,4,2,5,0.00
2013-2-11,44,37,33,34,30,29,88,78,58,0.00,40.00,4,2,7,0.00
2013-2-12,45,39,36,36,33,31,87,80,65,0.00,40.00,5,2,7,0.00
2013-2-13,49,43,35,37,34,32,88,73,52,0.00,40.00,12,4,23,0.00
2013-2-14,47,38,31,34,32,29,94,80,51,0.00,40.00,4,2,5,0.00
2013-2-15,52,41,34,36,34,31,88,76,54,0.00,40.00,5,3,8,0.00
2013-2-16,47,39,31,41,34,29,94,82,62,0.00,40.00,10,4,20,0.00
2013-2-17,45,40,36,36,30,27,89,68,47,0.00,40.00,7,4,21,0.00
2013-2-18,44,37,32,31,30,28,90,77,54,0.00,40.00,7,4,11,0.00
2013-2-19,41,36,32,34,32,28,87,82,75,0.00,40.00,5,3,11,0.00
2013-2-20,43,36,28,34,27,21,89,70,41,0.00,40.00,7,4,14,0.00
2013-2-21,36,32,28,33,28,23,96,84,65,0.00,40.00,4,2,8,0.00
2013-2-22,37,35,33,35,33,32,97,95,90,0.00,40.00,4,2,7,0.02
2013-2-23,41,36,32,34,30,26,97,78,55,0.00,40.00,6,4,14,0.01
2013-2-24,43,35,31,33,30,28,94,81,57,0.00,40.00,5,3,11,0.00
2013-2-25,40,35,31,37,32,29,97,89,72,0.00,40.00,5,2,9,0.01
2013-2-26,44,36,32,30,28,25,85,73,48,0.00,40.00,6,3,9,0.01
2013-2-27,50,38,31,32,29,26,86,72,38,0.00,40.00,7,3,11,0.00
2013-2-28,39,36,33,37,34,32,96,93,83,0.00,40.00,4,2,10,0.01
2013-3-1,45,42,37,42,40,36,96,91,85,0.00,40.00,5,3,9,0.02
2013-3-2,46,42,37,43,39,35,97,90,77,0.00,40.00,6,3,10,0.01
2013-3-3,43,40,33,42,31,23,98,71,45,0.00,40.00,13,7,24,0.01
2013-3-4,48,37,28,29,26,23,87,64,36,0.00,40.00,7,4,9,0.00
2013-3-5,44,36,28,30,26,24,82,68,48,0.00,40.00,6,3,11,0.00
2013-3-6,50,40,36,41,36,30,96,84,69,0.00,40.00,15,4,28,0.02
2013-3-7,49,40,32,38,35,30,96,83,56,0.00,40.00,5,3,8,0.02
2013-3-8,54,38,31,32,29,27,92,73,40,0.00,40.00,6,4,12,0.00
2013-3-9,48,38,31,37,31,27,86,75,55,0.00,40.00,5,2,8,0.00
2013-3-10,50,38,30,39,32,28,95,81,46,0.00,40.00,8,3,14,0.00
2013-3-11,53,43,38,40,35,30,96,77,41,0.00,40.00,7,3,12,0.00
2013-3-12,46,40,36,42,37,31,96,87,77,0.00,40.00,6,3,11,0.01
2013-3-13,55,46,41,46,42,40,95,85,66,0.00,40.00,5,3,8,0.01
2013-3-14,54,47,40,46,41,37,92,79,59,0.00,40.00,4,2,7,0.00
2013-3-15,60,49,44,43,40,36,91,74,41,0.00,40.00,6,3,12,0.00
2013-3-16,52,43,40,41,38,36,94,83,57,0.00,40.00,7,3,14,0.00
2013-3-17,44,38,33,39,29,23,96,73,42,0.00,40.00,17,7,34,0.01
2013-3-18,45,37,33,34,31,26,96,80,49,0.00,40.00,7,3,13,0.01
2013-3-19,50,39,28,35,30,24,89,70,50,0.00,40.00,11,6,17,0.01
2013-3-20,50,43,38,43,39,34,95,86,71,0.00,40.00,10,4,26,0.02
2013-3-21,40,36,33,35,30,24,93,77,58,0.00,40.00,10,4,26,0.01
2013-3-22,40,35,32,31,28,23,93,75,52,0.00,40.00,13,5,22,0.00
2013-3-23,44,36,30,31,28,21,93,73,40,0.00,40.00,7,4,11,0.00
2013-3-24,47,35,25,26,23,19,86,64,31,0.00,40.00,9,5,14,0.00
2013-3-25,52,38,28,34,26,23,81,64,32,0.00,40.00,7,4,12,0.00
2013-3-26,60,44,31,39,32,28,87,64,33,0.00,40.00,5,3,10,0.00
2013-3-27,64,48,40,41,36,33,81,64,37,0.00,40.00,5,3,9,0.00
2013-3-28,59,49,42,46,40,37,87,73,52,0.00,40.00,5,3,7,0.00
2013-3-29,61,50,43,46,42,40,88,75,51,0.00,40.00,6,2,13,0.00
2013-3-30,63,50,42,44,38,-100,89,69,37,0.00,40.00,8,4,11,0.00
2013-3-31,68,51,35,40,36,29,90,61,22,0.00,40.00,5,3,7,0.00
2013-4-1,68,52,38,44,39,35,88,64,37,0.00,40.00,10,4,14,0.00
2013-4-2,67,52,40,46,42,38,91,70,38,0.00,40.00,8,4,13,0.00
2013-4-3,67,53,43,45,41,35,90,66,31,0.00,40.00,10,4,18,0.00
2013-4-4,55,49,42,49,42,38,94,78,58,0.00,40.00,6,4,13,0.00
2013-4-5,59,51,47,48,45,40,97,80,48,0.00,40.00,6,3,17,0.01
2013-4-6,57,49,46,48,43,35,97,81,43,0.00,40.00,11,3,22,0.01
2013-4-7,56,47,43,45,38,28,95,74,33,0.00,40.00,16,4,30,0.01
2013-4-8,48,41,34,41,35,31,93,80,54,0.00,40.00,9,4,15,0.01
2013-4-9,57,42,31,38,31,27,93,70,35,0.00,40.00,9,4,15,0.00
2013-4-10,53,46,42,45,38,35,85,74,50,0.00,40.00,12,2,23,0.00
2013-4-11,52,46,39,38,35,30,84,65,43,0.00,40.00,12,4,23,0.00
2013-4-12,57,44,34,43,35,31,93,73,36,0.00,40.00,8,4,20,0.01
2013-4-13,45,40,36,39,33,24,96,76,42,0.00,40.00,18,8,35,0.03
2013-4-14,48,39,34,35,33,31,95,79,53,0.00,40.00,10,4,15,0.01
2013-4-15,49,41,32,31,25,19,91,59,29,0.00,40.00,8,5,16,0.00
2013-4-16,48,40,31,21,17,13,59,39,24,0.00,40.00,9,4,18,0.00
2013-4-17,54,40,28,23,19,15,68,46,20,0.00,40.00,13,4,20,0.00
2013-4-18,51,40,30,37,28,22,76,63,40,0.00,40.00,5,3,9,0.00
2013-4-19,52,45,41,47,42,36,96,91,72,0.00,40.00,6,3,9,0.02
2013-4-20,56,50,47,46,40,35,97,70,45,0.00,40.00,9,3,21,0.01
2013-4-21,56,48,39,42,38,32,93,69,40,0.00,40.00,13,4,24,0.00
2013-4-22,55,42,31,37,27,22,92,60,28,0.00,40.00,9,4,15,0.00
2013-4-23,58,42,30,36,28,23,83,60,25,0.00,40.00,6,3,8,0.00
2013-4-24,64,47,32,35,30,26,87,57,24,0.00,40.00,10,4,19,0.00
2013-4-25,68,53,36,38,34,29,84,53,23,0.00,40.00,12,5,21,0.00
2013-4-26,74,56,40,43,39,36,86,58,26,0.00,40.00,7,4,14,0.00
2013-4-27,65,55,44,47,41,33,88,62,30,0.00,40.00,12,4,29,0.00
2013-4-28,62,56,51,45,39,33,81,54,34,0.00,40.00,8,3,21,0.00
2013-4-29,54,50,46,45,37,23,95,65,29,0.00,40.00,20,7,39,0.01
2013-4-30,48,41,32,32,28,21,84,59,40,0.00,40.00,15,6,25,0.00
2013-5-1,58,44,32,34,29,25,89,62,26,0.00,40.00,7,4,10,0.00
2013-5-2,71,51,33,38,32,25,84,53,18,0.00,40.00,5,3,9,0.00
2013-5-3,64,54,47,44,39,34,71,58,43,0.00,40.00,6,2,10,0.00
2013-5-4,72,57,41,43,36,29,88,51,21,0.00,40.00,8,4,23,0.00
2013-5-5,80,60,44,41,38,33,75,48,18,0.00,40.00,7,3,14,0.00
2013-5-6,83,65,49,44,39,27,74,43,13,0.00,40.00,7,3,13,0.00
2013-5-7,85,69,48,49,44,40,78,44,21,0.00,40.00,8,3,13,0.00
2013-5-8,66,58,52,45,44,43,73,60,45,0.00,40.00,4,3,8,0.00
2013-5-10,75,75,75,47,47,47,37,37,37,0.00,40.00,3,3,4,0.00
2013-5-13,78,62,51,52,49,48,92,68,36,0.00,40.00,8,4,28,0.00
2013-5-14,67,56,49,48,40,34,90,58,28,0.00,40.00,6,4,12,0.00
2013-5-15,70,54,40,42,38,32,83,59,24,0.00,40.00,6,3,9,0.00
2013-5-16,54,54,53,43,42,40,68,64,60,0.00,40.00,2,2,5,0.00
2013-5-30,61,61,61,42,40,38,49,46,42,0.00,40.00,6,4,12,0.00
2013-5-31,69,60,46,45,39,36,85,48,29,0.00,40.00,7,3,13,0.00
2013-6-1,71,57,43,49,42,37,85,60,29,0.00,40.00,5,3,7,0.00
2013-6-2,67,57,45,48,44,39,82,63,39,0.00,40.00,17,6,32,0.00
2013-6-3,72,61,51,50,45,39,94,62,31,0.00,40.00,10,4,17,0.00
2013-6-4,78,64,47,50,45,42,85,55,27,0.00,40.00,6,3,8,0.00
2013-6-5,82,67,51,52,46,37,85,53,20,0.00,40.00,10,4,17,0.00
2013-6-6,87,69,54,56,50,44,76,54,22,0.00,40.00,6,3,9,0.00
2013-6-7,83,71,57,57,48,33,83,49,23,0.00,40.00,10,5,19,0.00
2013-6-8,79,68,53,47,41,32,68,40,21,0.00,40.00,9,4,16,0.00
2013-6-9,78,64,50,48,42,34,75,47,21,0.00,40.00,11,5,23,0.00
2013-6-10,80,64,47,48,40,31,75,45,16,0.00,40.00,7,4,12,0.00
2013-6-11,71,61,50,46,41,36,74,50,31,0.00,40.00,11,5,19,0.00
2013-6-12,69,61,54,46,41,37,66,48,34,0.00,40.00,12,4,21,0.00
2013-6-13,69,61,54,46,41,38,73,49,33,0.00,40.00,12,5,23,0.00
2013-6-14,71,59,52,44,41,37,67,51,29,0.00,40.00,4,3,11,0.00
2013-6-15,82,62,45,49,41,29,82,51,14,0.00,40.00,6,4,10,0.00
2013-6-16,89,67,48,49,44,40,73,46,18,0.00,40.00,5,3,7,0.00
2013-6-17,85,72,58,54,49,46,66,45,25,0.00,40.00,5,2,11,0.00
2013-6-18,74,67,61,55,51,47,65,56,46,0.00,40.00,14,6,22,0.00
2013-6-19,61,55,50,55,52,46,96,89,68,0.00,40.00,11,3,18,0.05
2013-6-20,58,52,48,50,47,44,95,85,59,0.00,40.00,6,3,16,0.04
2013-6-22,72,63,51,50,47,40,82,58,33,0.00,40.00,7,3,13,0.00
2013-6-23,77,63,47,57,50,44,89,64,32,0.00,40.00,6,3,9,0.00
2013-6-24,69,62,59,59,56,52,95,80,62,0.00,40.00,6,2,13,0.01
2013-6-25,67,60,56,60,57,54,95,88,68,0.00,40.00,5,3,10,0.02
2013-6-26,61,58,57,57,56,56,95,92,85,0.00,40.00,3,2,5,0.02
2013-7-1,98,82,65,72,64,60,84,56,37,0.00,40.00,6,2,10,0.00
2013-7-2,98,79,67,69,64,59,80,61,36,0.00,40.00,9,3,13,0.00
2013-7-3,90,78,67,66,59,54,86,56,30,0.00,40.00,9,4,14,0.00
2013-7-4,84,73,60,59,51,42,79,50,22,0.00,40.00,9,4,15,0.00
2013-7-5,82,70,56,54,50,46,78,53,30,0.00,40.00,12,5,17,0.00
2013-7-6,87,66,54,54,50,48,81,59,27,0.00,40.00,9,4,14,0.00
2013-7-7,89,73,57,56,52,46,79,51,24,0.00,40.00,8,3,13,0.00
2013-7-8,85,68,60,56,50,-100,82,56,26,0.00,40.00,9,5,18,0.00
2013-7-9,90,73,55,57,50,34,81,50,13,0.00,40.00,6,3,9,0.00
2013-7-10,94,72,57,55,46,-100,73,45,22,0.00,40.00,8,4,13,0.00
2013-7-11,83,72,61,54,46,39,68,43,20,0.00,40.00,11,5,18,0.00
2013-7-12,81,68,55,48,42,36,68,42,22,0.00,40.00,12,5,20,0.00
2013-7-13,81,68,55,45,41,37,67,40,20,0.00,40.00,5,3,9,0.00
2013-7-14,88,68,52,49,44,36,73,46,16,0.00,40.00,5,3,9,0.00
2013-7-15,88,70,54,52,45,38,69,44,17,0.00,40.00,6,4,9,0.00
2013-7-16,94,73,56,63,53,45,70,52,29,0.00,40.00,5,3,9,0.00
2013-7-17,92,79,67,63,54,45,74,47,20,0.00,40.00,9,4,21,0.00
2013-7-18,94,77,59,56,49,33,76,43,11,0.00,40.00,4,3,9,0.00
2013-7-19,96,75,57,52,47,38,69,41,13,0.00,40.00,5,3,8,0.00
2013-7-20,96,74,57,52,43,-100,67,39,12,0.00,40.00,9,4,15,0.00
2013-7-21,95,75,55,51,44,31,68,39,10,0.00,40.00,5,3,9,0.00
2013-7-22,93,75,57,53,46,37,66,40,15,0.00,40.00,8,4,16,0.00
2013-7-23,83,67,58,53,48,45,67,52,36,0.00,40.00,5,4,7,0.00
2013-7-26,97,85,71,53,44,33,38,26,11,0.00,40.00,3,2,6,0.00
2013-7-27,88,73,58,53,42,32,63,36,13,0.00,40.00,9,4,18,0.00
2013-7-28,88,68,54,51,42,32,62,42,14,0.00,40.00,5,3,11,0.00
2013-7-29,89,71,54,50,41,27,71,39,11,0.00,40.00,6,4,12,0.00
2013-7-30,90,73,60,50,42,33,54,37,13,0.00,40.00,5,3,9,0.00
2013-7-31,95,74,59,54,47,42,66,40,16,0.00,40.00,5,3,12,0.00
2013-8-1,81,68,59,58,53,49,95,62,35,0.00,40.00,19,5,39,0.02
2013-8-2,59,59,59,58,57,57,95,94,93,0.00,40.00,3,2,5,0.02
2013-8-4,88,78,65,58,53,46,65,44,23,0.00,40.00,4,3,7,0.00
2013-8-5,91,72,58,55,52,45,80,53,20,0.00,40.00,8,4,16,0.00
2013-8-6,93,74,58,57,52,44,82,50,19,0.00,40.00,4,3,7,0.00
2013-8-7,93,82,69,56,46,36,48,30,13,0.00,40.00,5,3,11,0.00
2013-8-8,95,74,57,53,49,44,72,45,17,0.00,40.00,5,3,10,0.00
2013-8-9,92,76,63,58,52,44,71,46,25,0.00,40.00,10,3,23,0.00
2013-8-10,95,77,61,57,52,49,69,44,22,0.00,40.00,6,3,9,0.00
2013-8-11,88,76,65,59,54,48,75,49,31,0.00,40.00,5,3,14,0.00
2013-8-12,92,77,64,57,52,45,70,43,26,0.00,40.00,7,4,11,0.00
2013-9-1,90,74,58,54,50,46,68,46,25,0.00,40.00,6,3,11,0.00
2013-9-2,85,74,67,61,55,52,71,53,33,0.00,40.00,4,3,7,0.00
2013-9-3,82,71,66,66,60,56,81,66,51,0.00,40.00,5,3,9,0.00
2013-9-4,93,76,63,60,57,51,83,57,25,0.00,40.00,6,3,10,0.00
2013-9-5,79,70,62,68,61,56,92,74,54,0.00,40.00,12,4,25,0.01
2013-9-6,77,68,63,58,54,50,84,61,39,0.00,40.00,10,4,19,0.01
2013-9-7,81,67,57,54,48,-100,81,55,28,0.00,40.00,6,4,15,0.00
2013-9-8,77,66,58,57,50,45,89,60,32,0.00,40.00,10,4,24,0.00
2013-9-9,85,70,58,57,52,49,79,57,33,0.00,40.00,5,3,8,0.00
2013-9-10,89,70,56,56,51,44,85,55,21,0.00,40.00,6,3,8,0.00
2013-9-11,98,74,57,55,49,38,80,48,12,0.00,40.00,5,3,13,0.00
2013-9-12,89,70,62,53,49,46,59,49,29,0.00,40.00,4,3,7,0.00
2013-9-14,-200,0,200,-100,-100,-100,0,0,100,0.00,40.00,4,4,7,0.00
2013-9-16,79,73,64,50,46,44,53,39,30,0.00,40.00,12,5,20,0.00
2013-9-17,73,60,53,53,50,46,94,70,44,0.00,40.00,12,5,27,0.01
2013-9-18,58,54,50,53,49,45,94,84,66,0.00,40.00,5,4,7,0.01
2013-9-19,75,59,47,48,44,40,87,62,28,0.00,40.00,7,4,12,0.00
2013-9-20,81,61,45,50,44,41,85,57,28,0.00,40.00,6,4,12,0.00
2013-9-21,71,60,53,49,43,-100,77,57,35,0.00,40.00,6,3,9,0.00
2013-9-22,64,58,54,53,47,44,94,68,50,0.00,40.00,6,4,10,0.01
2013-9-23,66,57,51,52,47,39,94,72,37,0.00,40.00,7,3,18,0.01
2013-9-24,58,53,49,52,50,47,94,90,80,0.00,40.00,6,3,11,0.03
2013-9-25,55,50,47,48,46,45,95,88,70,0.00,40.00,5,3,13,0.01
2013-9-26,62,51,45,47,43,36,93,77,39,0.00,40.00,7,4,14,0.00
2013-9-27,57,48,43,47,43,40,92,81,63,0.00,40.00,4,3,17,0.00
2013-9-28,56,51,48,54,48,-100,95,90,86,0.00,40.00,4,2,8,0.02
2013-9-29,56,50,48,53,48,45,95,90,82,0.00,40.00,5,3,13,0.02
2013-9-30,52,48,44,48,45,42,95,87,74,0.00,40.00,8,4,29,0.02
2013-10-1,52,48,43,45,42,39,86,80,72,0.00,40.00,5,4,18,0.00
2013-10-2,60,49,41,41,39,35,90,70,41,0.00,40.00,5,4,11,0.00
2013-10-3,58,47,41,46,40,37,87,77,49,0.00,40.00,7,4,14,0.00
2013-10-4,60,45,36,38,35,33,90,71,37,0.00,40.00,6,4,9,0.00
2013-10-5,62,46,35,43,37,32,88,71,43,0.00,40.00,6,4,11,0.00
2013-10-6,43,40,37,37,36,34,88,84,79,0.00,40.00,6,5,9,0.00
2013-10-7,65,55,45,46,40,35,84,57,39,0.00,40.00,8,4,25,0.00
2013-10-8,52,48,42,45,41,36,91,79,55,0.00,40.00,4,3,8,0.00
2013-10-9,56,45,38,44,39,35,89,79,59,0.00,40.00,6,4,9,0.00
2013-10-10,56,48,43,43,41,39,85,76,56,0.00,40.00,6,3,11,0.00
2013-10-11,56,48,44,43,41,39,86,76,57,0.00,40.00,5,4,8,0.00
2013-10-12,61,48,43,41,37,-100,88,70,36,0.00,40.00,6,3,9,0.00
2013-10-13,54,44,40,41,38,36,90,80,60,0.00,40.00,5,3,8,0.00
2013-10-14,59,44,38,41,37,34,86,76,45,0.00,40.00,6,4,11,0.00
2013-10-15,58,44,36,40,36,32,87,74,48,0.00,40.00,6,4,9,0.00
2013-10-16,58,46,40,42,38,35,86,74,47,0.00,40.00,5,3,9,0.00
2013-10-17,57,46,40,43,39,36,89,77,55,0.00,40.00,5,3,10,0.00
2013-10-18,57,45,39,42,38,35,89,77,56,0.00,40.00,6,4,10,0.00
2013-10-19,58,45,39,44,37,-100,90,76,53,0.00,40.00,6,3,12,0.00
2013-10-20,59,47,40,45,40,36,90,78,53,0.00,40.00,6,3,9,0.00
2013-10-21,61,48,41,48,42,38,90,79,56,0.00,40.00,6,3,12,0.00
2013-10-22,61,49,42,49,43,40,92,81,61,0.00,40.00,6,3,10,0.00
2013-10-23,61,49,44,47,43,41,91,81,54,0.00,40.00,5,3,11,0.00
2013-10-24,60,48,43,48,43,40,91,81,57,0.00,40.00,5,3,8,0.00
2013-10-25,60,49,42,47,42,39,91,79,57,0.00,40.00,4,3,7,0.00
2013-10-26,60,48,42,46,39,-100,91,75,58,0.00,40.00,6,3,9,0.00
2013-10-27,51,46,40,44,39,29,92,77,43,0.00,40.00,6,4,22,0.00
2013-10-28,53,46,39,28,18,-100,45,34,28,0.00,40.00,8,5,24,0.00
2013-10-29,40,35,32,28,21,18,72,55,44,0.00,40.00,5,5,8,0.00
2013-11-2,-200,0,200,-100,-100,-100,0,0,100,0.00,40.00,2,2,7,0.00
2013-11-3,42,38,36,38,35,31,93,86,71,0.00,40.00,5,3,11,0.01
2013-11-4,42,37,34,35,32,29,94,85,62,0.00,40.00,8,4,17,0.01
2013-11-5,34,33,30,33,31,28,96,92,82,0.00,40.00,5,3,6,0.01
2013-11-6,43,38,33,39,36,32,96,93,87,0.00,40.00,4,3,7,0.01
2013-11-7,46,41,39,42,39,37,96,93,84,0.00,40.00,5,3,13,0.03
2013-11-8,48,43,41,44,42,40,96,94,88,0.00,40.00,3,2,5,0.02
2013-11-10,45,45,45,43,42,42,91,89,89,0.00,40.00,4,3,9,0.00
2013-11-11,54,47,42,46,42,40,93,85,72,0.00,40.00,6,3,10,0.00
2013-11-12,47,44,40,44,41,38,95,89,77,0.00,40.00,6,4,10,0.00
2013-11-13,51,46,44,46,44,42,95,90,81,0.00,40.00,4,2,6,0.00
2013-11-14,48,45,42,42,39,37,90,80,71,0.00,40.00,6,3,14,0.00
2013-11-15,46,42,34,37,35,31,94,77,55,0.00,40.00,9,4,18,0.00
2013-11-16,43,37,33,36,33,31,96,86,64,0.00,40.00,10,4,18,0.03
2013-11-17,49,40,36,39,36,34,94,87,66,0.00,40.00,5,3,8,0.01
2013-11-18,42,39,37,37,36,34,90,87,78,0.00,40.00,6,3,8,0.00
2013-11-19,43,40,38,42,39,36,96,93,89,0.00,40.00,5,3,8,0.02
2013-11-20,43,36,27,42,26,17,95,67,39,0.00,40.00,9,5,15,0.01
2013-11-21,38,28,23,24,21,18,83,73,46,0.00,40.00,7,5,11,0.00
2013-11-22,39,27,21,23,20,17,83,73,50,0.00,40.00,6,4,9,0.00
2013-11-23,41,29,23,27,23,19,86,77,54,0.00,40.00,5,4,9,0.00
2013-11-24,42,32,26,31,26,22,86,79,64,0.00,40.00,5,4,10,0.00
2013-11-25,44,34,29,34,29,26,88,81,63,0.00,40.00,5,4,8,0.00
2013-11-26,44,35,29,35,30,26,91,83,68,0.00,40.00,6,4,9,0.00
2013-11-27,39,33,31,32,30,28,91,86,77,0.00,40.00,6,4,11,0.00
2013-11-28,42,34,31,33,30,27,92,85,69,0.00,40.00,5,3,9,0.00
2013-11-29,38,34,29,35,30,26,94,86,76,0.00,40.00,7,4,11,0.00
2013-11-30,41,38,36,38,35,-100,95,92,89,0.00,40.00,3,2,6,0.00
2013-12-1,48,40,38,45,39,37,97,95,90,0.00,40.00,4,2,9,0.07
2013-12-2,49,40,31,47,34,23,96,79,49,0.00,40.00,9,5,24,0.05
2013-12-3,32,26,17,30,16,4,94,65,36,0.00,40.00,7,4,16,0.01
2013-12-4,29,20,15,11,8,5,75,59,37,0.00,40.00,10,6,18,0.01
2013-12-5,23,17,13,11,9,7,77,72,57,0.00,40.00,7,5,10,0.00
2013-12-6,23,16,10,9,3,-5,78,58,36,0.00,40.00,9,5,15,0.00
2013-12-7,20,13,6,3,-4,-100,72,47,33,0.00,40.00,13,5,22,0.00
2013-12-8,15,8,4,6,1,-3,75,70,59,0.00,40.00,8,6,13,0.00
2013-12-9,21,16,8,16,11,2,85,79,72,0.00,40.00,6,3,11,0.00
2013-12-10,27,24,21,23,20,16,88,83,78,0.00,40.00,4,2,7,0.00
2013-12-11,36,29,26,27,24,22,88,83,66,0.00,40.00,5,3,9,0.00
2013-12-12,35,31,26,29,26,22,87,82,72,0.00,40.00,6,4,11,0.00
2013-12-13,35,33,32,34,32,29,96,94,87,0.00,40.00,3,1,4,0.01
2013-12-14,38,35,34,36,32,-100,96,93,90,0.00,40.00,4,3,7,0.01
2013-12-15,41,36,34,35,34,32,95,91,80,0.00,40.00,8,4,11,0.00
2013-12-23,38,36,35,36,35,34,96,94,91,0.00,40.00,5,3,15,0.03
2013-12-24,40,33,30,34,31,28,96,91,75,0.00,40.00,5,3,9,0.01
2013-12-25,39,32,25,30,27,22,90,83,66,0.00,40.00,11,5,16,0.00
2013-12-26,42,34,29,33,29,26,91,84,66,0.00,40.00,5,4,9,0.00
2013-12-27,36,33,29,32,29,27,91,87,81,0.00,40.00,9,4,14,0.00
2013-12-28,40,34,30,33,28,-100,95,86,77,0.00,40.00,5,2,7,0.00
2013-12-29,34,32,29,31,29,27,93,89,79,0.00,40.00,6,3,11,0.00
2013-12-30,36,33,30,34,30,27,96,91,79,0.00,40.00,5,3,9,0.01
2013-12-31,39,36,34,37,35,33,97,95,92,0.00,40.00,3,2,5,0.01
2014-1-1,39,37,35,36,35,33,97,93,89,0.00,40.00,5,2,7,0.00
2014-1-2,39,36,34,35,33,32,94,91,82,0.00,40.00,4,3,9,0.00